Location: Querceta
(43.9763°N, 10.1983°E)
Time: 17:25:21
(UTC+01:00)

Envisat - Visible Passes

Search period start: 08 March 2021 00:00
Search period end: 18 March 2021 00:00
Orbit: 764 x 766 km, 98.1° (Epoch: 07 March)

Date Brightness Start Highest point End Pass type
(mag) Time Alt. Az. Time Alt. Az. Time Alt. Az.
08 Mar 6.1 04:37:46 10° ENE 04:40:10 13° E 04:42:32 10° ESE visible
08 Mar 3.0 06:14:40 10° N 06:19:46 78° WNW 06:24:50 10° SSW visible
09 Mar 4.1 05:37:57 10° NNE 05:42:54 49° E 05:47:48 10° S visible
10 Mar 5.5 05:01:50 10° NE 05:05:51 23° E 05:09:49 10° SE visible
11 Mar 6.4 04:28:17 10° E 04:28:34 10° E 04:28:52 10° E visible
11 Mar 3.1 06:03:13 10° NNE 06:08:20 85° ESE 06:13:26 10° SSW visible
12 Mar 4.6 05:26:40 10° NNE 05:31:26 39° E 05:36:09 10° SSE visible
13 Mar 5.9 04:50:49 10° NE 04:54:18 18° E 04:57:46 10° SE visible
14 Mar 3.5 05:51:49 10° NNE 05:56:54 67° ESE 06:01:57 10° S visible
15 Mar 5.0 05:15:25 10° NNE 05:19:55 31° E 05:24:24 10° SSE visible
16 Mar 6.0 04:40:01 10° NE 04:42:44 14° E 04:45:27 10° ESE visible
17 Mar 3.9 05:40:27 10° NNE 05:45:27 53° E 05:50:24 10° S visible
